[[{"header":{"parameterUnit":"m.s-1","parameterCategory":1,"la1":30.2991,"la2":30.254,"lo1":-89.0895,"lo2":-89.0444,"dy":0.0017,"dx":0.0017,"nx":28,"ny":28,"refTime":"2023-08-07T03:00:00:Z","depth":0,"parameterNumber":2,"parameterNumberName":"U-component_of_WINDS"},"data":[0,0,0,0,0,0,0,0,0,0,0,0,0,0,0,0,0,0,0,0,0,0,0,0,0,0,0,0,0,0,0,0,0,0,0,0,0,0,0,0,0,0,0,0,0,0,0,0,0,0,0,0,0,0,0,0,0,0,5.6159,5.6161,0,5.6325,5.6327,5.6329,5.6278,5.6274,5.6271,5.6267,5.6437,5.6445,5.6452,0,0,0,0,0,0,0,0,0,0,0,0,0,5.5796,5.5803,5.6159,5.6161,5.6163,5.6325,5.6327,5.633,5.6278,5.6274,5.627,5.6266,5.6435,5.6444,5.6453,0,0,0,0,0,0,0,0,0,0,0,0,0,5.5957,5.5805,5.6159,5.6157,5.6159,5.6325,5.6327,5.633,5.6279,5.6274,5.6269,5.6264,5.6432,5.6443,5.6454,5.6632,0,0,5.649,5.6495,0,0,0,0,0,0,0,0,5.5948,5.597,5.6155,5.6158,5.616,5.6275,5.6261,5.6431,5.628,5.6233,5.6267,5.6261,5.6388,5.6403,5.6445,5.664,5.6647,5.6491,5.6498,5.6503,5.6507,0,0,0,0,0,0,0,5.5937,5.5963,5.6225,5.6158,5.6161,5.6148,5.6165,5.6293,5.6338,5.6237,5.6234,5.6254,5.6388,5.6434,5.6449,5.665,5.6491,5.6501,5.6508,5.6513,5.6994,5.7,0,0,0,0,0,0,5.5924,5.5954,5.622,5.623,5.6039,5.6158,5.6177,5.6244,5.6336,5.6346,5.6258,5.6251,5.6417,5.6435,5.6455,5.6665,5.6503,5.6514,5.6521,5.6988,5.6995,5.7002,0,0,0,0,0,0,5.5917,5.5949,5.6213,5.6091,5.6124,5.617,5.6245,5.625,5.6296,5.6353,5.636,5.6298,5.6413,5.6438,5.6587,5.667,5.6519,5.653,5.6982,5.699,5.6998,5.709,0,0,0,0,0,0,5.5907,5.5946,5.6015,5.6093,5.613,5.6344,5.625,5.6257,5.6316,5.6308,5.6391,5.64,5.6411,5.657,5.6599,5.6684,5.6539,5.6974,5.6985,5.6996,5.708,5.7101,5.7119,0,0,0,0,0,5.5894,5.6035,5.6018,5.6051,5.6217,5.6349,5.637,5.638,5.6323,5.6392,5.6428,5.6397,5.6657,5.6586,5.6618,5.6708,5.6969,5.6982,5.6995,5.7071,5.7097,5.7118,0,0,0,0,0,0,5.5965,5.6045,5.6028,5.6198,5.6267,5.634,5.6426,5.6407,5.6493,5.6482,5.6491,5.651,5.6662,5.67,5.6619,5.6882,5.6805,5.6825,5.6851,5.6876,5.6895,5.6882,5.6549,0,0,0,0,0,5.6001,5.6101,5.6166,5.631,5.6345,5.638,5.6438,5.6439,5.6511,5.6539,5.6586,5.6657,5.6754,5.6818,5.691,5.7086,5.7101,5.7163,5.7182,5.7198,5.7215,5.7307,5.7334,5.7044,5.7044,5.7044,0,0,5.6075,5.6131,5.6194,5.6325,5.6379,5.6481,5.6405,5.6518,5.6593,5.6557,5.6699,5.6736,5.6815,5.6977,5.7051,5.7013,5.7298,5.7215,5.7227,5.7235,5.7323,5.735,5.7374,5.7053,5.7051,5.705,0,0,5.6263,5.6317,5.6441,5.6496,5.6577,5.6599,5.6629,5.6705,5.6727,5.6871,5.6844,5.6935,5.7103,5.7159,5.721,5.7416,5.7391,5.7447,5.7547,5.7637,5.766,5.768,5.775,5.7776,5.7463,5.7464,5.7464,0,5.6345,5.6499,5.6507,5.6622,5.6679,5.665,5.6775,5.6828,5.6935,5.6975,5.6932,5.714,5.7191,5.7364,5.7414,5.7458,5.749,5.7436,5.7656,5.7676,5.7695,5.7762,5.7789,5.747,5.7469,5.7468,5.7468,0,5.6594,5.6702,5.6792,5.6896,5.6963,5.7083,5.7108,5.7175,5.7171,5.7197,5.7342,5.7402,5.7505,5.7547,5.7544,5.7719,5.7693,5.7653,5.7575,5.7729,5.7792,5.7818,5.7478,5.7476,5.7474,5.7473,0,0,5.6831,5.6937,5.6969,5.7014,5.7102,5.7184,5.7301,5.7401,5.7457,5.7533,5.7629,5.7771,5.7734,5.7792,5.7795,5.7874,5.803,5.7824,5.7826,5.7857,5.8222,5.8249,5.8279,5.8014,5.8019,5.8023,5.8214,0,5.7023,5.7229,5.7239,5.7425,5.7522,5.7495,5.7597,5.7661,5.7688,5.7774,5.7804,5.7903,5.7849,5.7883,5.796,5.7994,5.8102,5.7981,5.8102,5.8106,5.808,5.8312,5.8342,5.8519,5.8239,5.8244,5.8247,0,5.7275,5.7356,5.7552,5.7622,5.7664,5.7755,5.7845,5.7929,5.8,5.8014,5.8077,5.8069,5.8187,5.8106,5.8267,5.8184,5.8234,5.8259,5.8266,5.8275,5.8183,5.8325,5.8576,5.8601,5.8286,5.8283,5.828,0,5.7424,5.7583,5.7719,5.7759,5.7846,5.791,5.7949,5.8015,5.8073,5.8153,5.819,5.8284,5.8334,5.8405,5.8421,5.8362,5.8581,5.8503,5.8594,5.8594,5.864,5.8636,5.8899,5.8678,5.8677,5.8677,5.8676,0,5.7636,5.7756,5.7787,5.7871,5.8003,5.8013,5.8144,5.8179,5.8237,5.8326,5.831,5.8393,5.841,5.8497,5.8511,5.864,5.8664,5.8677,5.8679,5.8677,5.8675,5.8708,5.8694,5.8684,5.8682,5.8681,5.868,0,5.7823,5.785,5.7996,5.8065,5.8086,5.818,5.8239,5.8318,5.8343,5.8456,5.8483,5.8522,5.8623,5.8646,5.8768,5.8776,5.8928,5.892,5.8904,5.8902,5.8991,5.8981,5.9282,5.9321,5.9077,5.9079,5.9081,0,5.7955,5.8047,5.8125,5.8183,5.8225,5.8319,5.8378,5.8391,5.8453,5.854,5.8608,5.8707,5.8787,5.8949,5.8988,5.908,5.9071,5.917,5.9085,5.9079,5.9068,5.9061,5.9069,5.9186,5.9188,5.919,5.9192,0,5.8186,5.8193,5.8279,5.837,5.844,5.8512,5.8581,5.8629,5.8651,5.8722,5.8824,5.8886,5.9008,5.9106,5.9197,5.9236,5.9217,5.9219,5.9244,5.9242,5.9227,5.9233,5.8945,5.9212,5.921,5.9208,5.9207,5.9206,5.8347,5.8426,5.8492,5.8588,5.864,5.8704,5.8781,5.8815,5.8901,5.9001,5.9004,5.9115,5.9181,5.9301,5.9346,5.9432,5.9401,5.9439,5.9448,5.9456,5.9462,5.9216,5.9449,5.9449,5.9448,5.9448,5.9447,0,5.8573,5.8615,5.8703,5.8798,5.8872,5.8849,5.8922,5.8986,5.9084,5.9147,5.9225,5.9342,5.9436,5.9481,5.9574,5.9634,5.9627,5.9657,5.9651,5.966,5.9486,5.9453,5.9661,5.9661,5.9661,5.9661,5.9661,5.9661,5.87,5.883,5.8845,5.9001,5.9041,5.9149,5.9193,5.925,5.9301,5.9431,5.9509,5.9538,5.9594,5.969,5.9774,5.9785,5.9818,5.9852,5.9858,5.9695,5.9673,5.9652,5.9621,5.986,5.986,6.0025,6.0026,6.0027]},{"header":{"parameterUnit":"m.s-1","parameterCategory":1,"la1":30.2991,"la2":30.254,"lo1":-89.0895,"lo2":-89.0444,"dy":0.0017,"dx":0.0017,"nx":28,"ny":28,"refTime":"2023-08-07T03:00:00:Z","depth":0,"parameterNumber":3,"parameterNumberName":"V-component_of_WINDS"},"data":[0,0,0,0,0,0,0,0,0,0,0,0,0,0,0,0,0,0,0,0,0,0,0,0,0,0,0,0,0,0,0,0,0,0,0,0,0,0,0,0,0,0,0,0,0,0,0,0,0,0,0,0,0,0,0,0,0,0,2.1312,2.1313,0,2.1399,2.14,2.1401,2.1391,2.1389,2.1388,2.1386,2.1476,2.148,2.1484,0,0,0,0,0,0,0,0,0,0,0,0,0,2.1137,2.114,2.1312,2.1313,2.1315,2.1399,2.14,2.1402,2.1391,2.1389,2.1387,2.1386,2.1475,2.148,2.1484,0,0,0,0,0,0,0,0,0,0,0,0,0,2.1217,2.1141,2.1312,2.1319,2.1321,2.1399,2.14,2.1402,2.1391,2.1389,2.1387,2.1385,2.1474,2.1479,2.1485,2.1561,0,0,2.1502,2.1504,0,0,0,0,0,0,0,0,2.1213,2.1224,2.1317,2.1319,2.1321,2.1382,2.1371,2.1455,2.1392,2.1365,2.1386,2.1384,2.1447,2.1454,2.1475,2.1566,2.157,2.1502,2.1506,2.1508,2.151,0,0,0,0,0,0,0,2.1207,2.122,2.1347,2.1319,2.1321,2.1318,2.1327,2.1387,2.1417,2.1367,2.1366,2.1377,2.1447,2.147,2.1477,2.1571,2.1502,2.1507,2.151,2.1513,2.1727,2.1729,0,0,0,0,0,0,2.12,2.1215,2.1344,2.1349,2.126,2.1323,2.1333,2.1364,2.1416,2.1422,2.1378,2.1376,2.1462,2.1471,2.1481,2.1573,2.1508,2.1513,2.1516,2.1725,2.1728,2.173,0,0,0,0,0,0,2.1196,2.1211,2.134,2.1282,2.1298,2.1328,2.1364,2.1367,2.139,2.1425,2.143,2.1396,2.146,2.1473,2.1541,2.1576,2.1516,2.1521,2.1722,2.1726,2.1729,2.176,0,0,0,0,0,0,2.1191,2.121,2.124,2.1283,2.1302,2.14,2.1366,2.1371,2.14,2.1397,2.1443,2.1448,2.146,2.1533,2.1547,2.1583,2.1525,2.1719,2.1724,2.1728,2.1756,2.1764,2.1771,0,0,0,0,0,2.1185,2.1245,2.1241,2.1257,2.1339,2.1402,2.1413,2.1424,2.1402,2.1432,2.1454,2.1447,2.157,2.154,2.1555,2.1594,2.1717,2.1722,2.1727,2.1752,2.1762,2.1771,0,0,0,0,0,0,2.1206,2.1251,2.1247,2.1324,2.1359,2.14,2.1438,2.1434,2.1477,2.1473,2.1486,2.1496,2.1565,2.1586,2.1552,2.167,2.164,2.1649,2.1654,2.1664,2.1671,2.1665,2.153,0,0,0,0,0,2.122,2.1267,2.1303,2.1367,2.1385,2.1408,2.1436,2.1442,2.1479,2.1494,2.1521,2.1558,2.1604,2.1635,2.168,2.1758,2.1768,2.1792,2.18,2.1806,2.1813,2.1855,2.1866,2.1748,2.1748,2.1747,0,0,2.1248,2.1279,2.1308,2.1372,2.14,2.1448,2.1421,2.1474,2.1509,2.1502,2.1568,2.1589,2.1631,2.1704,2.1737,2.1724,2.1848,2.1812,2.1817,2.1821,2.1862,2.1873,2.1883,2.1751,2.1751,2.175,0,0,2.1325,2.1353,2.1409,2.1437,2.1479,2.1494,2.1508,2.1549,2.1562,2.1629,2.1624,2.1666,2.1747,2.1777,2.1802,2.1888,2.1883,2.1902,2.1942,2.1983,2.1992,2.2001,2.2031,2.2042,2.191,2.191,2.191,0,2.1356,2.1428,2.1438,2.1491,2.1519,2.1514,2.157,2.1597,2.1652,2.1672,2.1655,2.1755,2.1783,2.1862,2.1883,2.1904,2.1919,2.1898,2.199,2.1999,2.2006,2.2036,2.2047,2.1912,2.1912,2.1911,2.1911,0,2.1463,2.1513,2.1553,2.1606,2.1638,2.1693,2.1711,2.1742,2.1745,2.1761,2.1828,2.1861,2.1912,2.1931,2.1934,2.2011,2.2001,2.1987,2.1958,2.202,2.2047,2.2059,2.1915,2.1914,2.1913,2.1913,0,0,2.1557,2.1613,2.1628,2.1651,2.1697,2.1736,2.1789,2.1839,2.1865,2.1903,2.1948,2.2015,2.2003,2.2031,2.2038,2.2073,2.2139,2.2055,2.2056,2.207,2.2225,2.2235,2.2248,2.2135,2.2137,2.2139,2.2221,0,2.1638,2.1733,2.1743,2.1827,2.1873,2.1868,2.1915,2.1947,2.1964,2.2005,2.2023,2.2071,2.205,2.2067,2.2102,2.2123,2.217,2.2118,2.2177,2.2179,2.2167,2.2262,2.2274,2.235,2.2232,2.2234,2.2235,0,2.1746,2.1786,2.1875,2.1913,2.1933,2.1974,2.202,2.2059,2.2096,2.2105,2.2137,2.2138,2.2193,2.216,2.2236,2.22,2.2224,2.2238,2.2241,2.2248,2.2211,2.2271,2.2374,2.2386,2.2252,2.2251,2.225,0,2.1806,2.1882,2.1945,2.1965,2.2011,2.204,2.206,2.2095,2.2124,2.2163,2.2182,2.2227,2.2252,2.2287,2.23,2.2276,2.2375,2.2344,2.2384,2.2384,2.2406,2.2405,2.2515,2.2421,2.2421,2.2421,2.2421,0,2.1896,2.195,2.1972,2.201,2.2071,2.2081,2.2141,2.216,2.2191,2.2233,2.2231,2.227,2.2285,2.2327,2.2337,2.2398,2.2409,2.2418,2.242,2.2419,2.2417,2.2435,2.243,2.2424,2.2423,2.2423,2.2422,0,2.1973,2.1989,2.2057,2.2095,2.2105,2.2148,2.218,2.2217,2.2232,2.2286,2.2299,2.2323,2.2372,2.2388,2.2447,2.2454,2.2525,2.2522,2.2512,2.2513,2.2552,2.2548,2.2678,2.2695,2.259,2.2591,2.2592,0,2.2029,2.2071,2.2112,2.214,2.2162,2.2206,2.2235,2.2247,2.2277,2.2321,2.2352,2.2401,2.244,2.2518,2.2541,2.2586,2.2585,2.2627,2.2592,2.2588,2.2585,2.2583,2.2587,2.2634,2.2635,2.2636,2.2637,0,2.2128,2.2133,2.2175,2.2219,2.2253,2.2289,2.2323,2.2346,2.2362,2.2396,2.2446,2.2476,2.2536,2.2584,2.2629,2.265,2.2646,2.2647,2.2659,2.2658,2.265,2.2655,2.253,2.2645,2.2644,2.2643,2.2643,2.2642,2.2196,2.2232,2.2267,2.2313,2.234,2.2371,2.2408,2.2427,2.2468,2.2518,2.2522,2.2575,2.261,2.267,2.2693,2.2735,2.2723,2.274,2.2745,2.2749,2.2752,2.2643,2.2744,2.2743,2.2743,2.2743,2.2743,0,2.2294,2.2316,2.2358,2.2405,2.2441,2.2433,2.247,2.2501,2.2548,2.258,2.2619,2.2675,2.2721,2.2747,2.2793,2.2821,2.282,2.2833,2.2831,2.2836,2.276,2.2745,2.2832,2.2832,2.2832,2.2832,2.2832,2.2832,2.2349,2.241,2.242,2.2494,2.2515,2.2567,2.2589,2.2618,2.2643,2.2706,2.2744,2.276,2.279,2.2837,2.2879,2.2885,2.2902,2.2916,2.2921,2.285,2.2841,2.2832,2.2818,2.292,2.292,2.2993,2.2994,2.2995]}]]